Starlink 33962

operational
NORAD ID: 63950 Int'l Des: 2025-098 Owner: SPXS Country: US Constellation: starlink
LEOCIRCULAR

关于 Starlink 33962

正在加载描述...

实时位置

正在加载3D地球...

即将过境

高度历史

Altitude vs Time

uPlot chart will show altitude changes over time

两行轨道根数

1 63950U 25098AA 26061.06972432 .00017352 00000-0 14568-2 0 9999
2 63950 69.9997 293.5627 0005014 259.0004 101.0592 14.98369144 45419
Epoch: Mar 2, 2026 • Age: 26 hours

当前状态

高度 586.7 km
速度 7.57 km/s
星下点 69.98°N, 177.96°W
发射日期 May 13, 2025
运行时间 0.8 years
类型 internet

技术详情

分类 Payload
质量 575.00 kg
干质量 530.00 kg
总质量 575.00 kg
长度 0.30 m
直径 4.10 m
跨度 29.00 m
形状 Box + pan
制造商 SPXS
平台类型 Starlink V2MO
阶段状态 In Orbit
所有者/国家 SPXS/US

大型星座

Loading constellations...